Weather History for Gustavus, AK

Change the Weather History Date:

Wednesday, August 1, 2012

  Actual Average Record
Temperature  
Mean Temperature 56 °F -  
Max Temperature 62 °F 64 °F 80 °F (1976)
Min Temperature 51 °F 49 °F 40 °F (1960)
Degree Days  
Heating Degree Days 8    
Growing Degree Days 6 (Base 50)    
Moisture  
Dew Point 50 °F    
Average Humidity 79    
Maximum Humidity 88    
Minimum Humidity 63    
Precipitation  
Precipitation 0.00 in - - ()
Sea Level Pressure  
Sea Level Pressure 30.06 in    
Wind  
Wind Speed 3 mph (South)    
Max Wind Speed 8 mph    
Max Gust Speed -    
Visibility 10 miles    
Events      
Averages and records for this station are not official NWS values.
T = Trace of Precipitation, MM = Missing Value Source: NWS Daily Summary

Daily Weather History Graph

Daily Weather History Graph

Search for Another Location

Airport:

Trip Planner

Search our weather history database for the weather conditions in past years. The results will help you decide how hot, cold, wet, or windy it might be!

Date:

Astronomy

Aug. 01, 2012 Rise Set
Actual Time 4:55 AM AKDT 9:21 PM AKDT
Civil Twilight 4:00 AM AKDT 10:15 PM AKDT
Nautical Twilight 2:28 AM AKDT 11:45 PM AKDT
Astronomical Twilight Sun does not rise Sun does not rise
Moon 8:36 PM AKDT (8/1) 4:42 AM AKDT (8/1)
Length of Visible Light 18h 15m
Length of Day
16h 26m
Full, 100% of the Moon is Illuminated
Aug 1
Full
Aug 1
Full
Aug 9
Last Quarter
Aug 17
New
Aug 24
First Quarter

Hourly Weather History & Observations

Time (AKDT) Temp. Dew Point Humidity Pressure Visibility Wind Dir Wind Speed Gust Speed Precip Events Conditions
12:16 AM 51.8 °F 48.2 °F 88% 29.96 in 10.0 mi NNW 5.8 mph - N/A   Overcast
12:36 AM 51.8 °F 48.2 °F 88% 29.96 in 10.0 mi NNW 5.8 mph - N/A   Overcast
12:56 AM 51.8 °F 48.2 °F 88% 29.97 in 10.0 mi NNW 3.5 mph - N/A   Overcast
1:16 AM 51.8 °F 48.2 °F 88% 29.97 in 10.0 mi NNW 3.5 mph - N/A   Overcast
1:36 AM 51.8 °F 48.2 °F 88% 29.97 in 10.0 mi Calm Calm - N/A   Overcast
1:56 AM 51.8 °F 48.2 °F 88% 29.98 in 10.0 mi Calm Calm - N/A   Overcast
2:16 AM 51.8 °F 48.2 °F 88% 29.98 in 10.0 mi Calm Calm - N/A   Overcast
2:36 AM 51.8 °F 48.2 °F 88% 29.98 in 10.0 mi Calm Calm - N/A   Overcast
2:56 AM 51.8 °F 48.2 °F 88% 29.98 in 10.0 mi NNW 3.5 mph - N/A   Overcast
3:16 AM 51.8 °F 48.2 °F 88% 29.99 in 10.0 mi NNW 4.6 mph - N/A   Overcast
3:36 AM 51.8 °F 48.2 °F 88% 29.99 in 10.0 mi Calm Calm - N/A   Overcast
3:56 AM 51.8 °F 48.2 °F 88% 29.99 in 10.0 mi Calm Calm - N/A   Overcast
4:16 AM 51.8 °F 46.4 °F 82% 29.99 in 10.0 mi Calm Calm - N/A   Overcast
4:36 AM 51.8 °F 46.4 °F 82% 30.00 in 10.0 mi Calm Calm - N/A   Overcast
4:56 AM 51.8 °F 48.2 °F 88% 30.00 in 10.0 mi Calm Calm - N/A   Overcast
5:16 AM 51.8 °F 46.4 °F 82% 30.00 in 10.0 mi Calm Calm - N/A   Overcast
5:36 AM 51.8 °F 46.4 °F 82% 30.01 in 10.0 mi Calm Calm - N/A   Overcast
5:56 AM 51.8 °F 46.4 °F 82% 30.01 in 10.0 mi Calm Calm - N/A   Overcast
6:16 AM 51.8 °F 48.2 °F 88% 30.02 in 10.0 mi Calm Calm - N/A   Overcast
6:36 AM 51.8 °F 48.2 °F 88% 30.02 in 10.0 mi Calm Calm - N/A   Overcast
6:56 AM 53.6 °F 48.2 °F 82% 30.03 in 10.0 mi NNW 3.5 mph - N/A   Overcast
7:16 AM 53.6 °F 48.2 °F 82% 30.03 in 10.0 mi NNW 3.5 mph - N/A   Overcast
7:36 AM 53.6 °F 48.2 °F 82% 30.03 in 10.0 mi Calm Calm - N/A   Overcast
7:56 AM 53.6 °F 50.0 °F 88% 30.04 in 10.0 mi Calm Calm - N/A   Overcast
8:16 AM 53.6 °F 50.0 °F 88% 30.05 in 10.0 mi Calm Calm - N/A   Overcast
8:36 AM 55.4 °F 50.0 °F 82% 30.05 in 10.0 mi Calm Calm - N/A   Overcast
8:56 AM 55.4 °F 51.8 °F 88% 30.06 in 9.0 mi Calm Calm - N/A   Overcast
9:16 AM 55.4 °F 51.8 °F 88% 30.06 in 10.0 mi Calm Calm - N/A   Overcast
9:36 AM 57.2 °F 48.2 °F 72% 30.06 in 10.0 mi Calm Calm - N/A   Overcast
9:56 AM 57.2 °F 50.0 °F 77% 30.06 in 10.0 mi Calm Calm - N/A   Overcast
10:16 AM 57.2 °F 50.0 °F 77% 30.06 in 10.0 mi ESE 6.9 mph - N/A   Overcast
10:36 AM 59.0 °F 50.0 °F 72% 30.06 in 10.0 mi SSE 5.8 mph - N/A   Mostly Cloudy
10:56 AM 59.0 °F 50.0 °F 72% 30.07 in 10.0 mi SSE 4.6 mph - N/A   Overcast
11:16 AM 57.2 °F 50.0 °F 77% 30.07 in 10.0 mi SSW 4.6 mph - N/A   Mostly Cloudy
11:36 AM 57.2 °F 51.8 °F 82% 30.08 in 8.0 mi Calm Calm - N/A   Mostly Cloudy
11:56 AM 60.8 °F 51.8 °F 72% 30.08 in 10.0 mi SW 4.6 mph - N/A   Overcast
12:16 PM 60.8 °F 51.8 °F 72% 30.09 in 10.0 mi ESE 4.6 mph - N/A   Mostly Cloudy
12:36 PM 60.8 °F 51.8 °F 72% 30.09 in 10.0 mi East 3.5 mph - N/A   Mostly Cloudy
12:56 PM 60.8 °F 51.8 °F 72% 30.09 in 10.0 mi SE 5.8 mph - N/A   Overcast
1:16 PM 60.8 °F 51.8 °F 72% 30.09 in 10.0 mi Calm Calm - N/A   Overcast
1:36 PM 62.6 °F 51.8 °F 68% 30.09 in 10.0 mi SE 5.8 mph - N/A   Overcast
1:56 PM 60.8 °F 51.8 °F 72% 30.09 in 10.0 mi SE 4.6 mph - N/A   Overcast
2:16 PM 62.6 °F 53.6 °F 72% 30.10 in 10.0 mi ESE 8.1 mph - N/A   Overcast
2:36 PM 62.6 °F 51.8 °F 68% 30.10 in 10.0 mi SE 6.9 mph - N/A   Overcast
2:56 PM 62.6 °F 51.8 °F 68% 30.10 in 10.0 mi SE 8.1 mph - N/A   Overcast
3:16 PM 62.6 °F 51.8 °F 68% 30.11 in 10.0 mi SE 6.9 mph - N/A   Overcast
3:36 PM 62.6 °F 51.8 °F 68% 30.11 in 10.0 mi SSE 5.8 mph - N/A   Overcast
3:56 PM 62.6 °F 51.8 °F 68% 30.11 in 10.0 mi SW 4.6 mph - N/A   Overcast
4:16 PM 62.6 °F 51.8 °F 68% 30.11 in 10.0 mi South 3.5 mph - N/A   Overcast
4:36 PM 62.6 °F 51.8 °F 68% 30.11 in 10.0 mi SE 5.8 mph - N/A   Overcast
4:56 PM 62.6 °F 51.8 °F 68% 30.11 in 10.0 mi ESE 4.6 mph - N/A   Overcast
5:16 PM 62.6 °F 51.8 °F 68% 30.11 in 10.0 mi ESE 4.6 mph - N/A   Overcast
5:36 PM 62.6 °F 50.0 °F 63% 30.11 in 10.0 mi Calm Calm - N/A   Overcast
5:56 PM 62.6 °F 51.8 °F 68% 30.11 in 10.0 mi SW 8.1 mph - N/A   Overcast
6:36 PM 59.0 °F 51.8 °F 77% 30.12 in 10.0 mi SSW 6.9 mph - N/A   Overcast
6:56 PM 59.0 °F 51.8 °F 77% 30.12 in 10.0 mi SW 3.5 mph - N/A   Overcast
7:16 PM 57.2 °F 51.8 °F 82% 30.11 in 10.0 mi Calm Calm - N/A   Overcast
7:36 PM 57.2 °F 51.8 °F 82% 30.11 in 10.0 mi South 4.6 mph - N/A   Overcast
7:56 PM 57.2 °F 51.8 °F 82% 30.12 in 10.0 mi SW 5.8 mph - N/A   Overcast
8:16 PM 57.2 °F 50.0 °F 77% 30.12 in 10.0 mi West 4.6 mph - N/A   Overcast
8:36 PM 55.4 °F 50.0 °F 82% 30.13 in 8.0 mi SSW 3.5 mph - N/A   Overcast
8:56 PM 55.4 °F 50.0 °F 82% 30.13 in 10.0 mi SW 3.5 mph - N/A   Overcast
9:16 PM 55.4 °F 50.0 °F 82% 30.13 in 10.0 mi Calm Calm - N/A   Overcast
9:36 PM 55.4 °F 50.0 °F 82% 30.13 in 10.0 mi Calm Calm - N/A   Overcast
9:56 PM 55.4 °F 50.0 °F 82% 30.13 in 10.0 mi North 3.5 mph - N/A   Overcast
10:36 PM 55.4 °F 48.2 °F 77% 30.13 in 10.0 mi Calm Calm - N/A   Overcast
10:56 PM 53.6 °F 48.2 °F 82% 30.13 in 10.0 mi WSW 4.6 mph - N/A   Overcast
11:16 PM 53.6 °F 48.2 °F 82% 30.13 in 10.0 mi Calm Calm - N/A   Overcast
11:36 PM 53.6 °F 50.0 °F 88% 30.13 in 10.0 mi Calm Calm - N/A   Overcast
11:56 PM 53.6 °F 50.0 °F 88% 30.13 in 7.0 mi Calm Calm - N/A   Overcast